Disclaimer

Please do not use the information listed here in-flight or in-navigation, as they are not provided to us by the airports but are provided by volunteers, so they might be outdated.

Search


Regions


Airport information page

Radio informations:
Tower (TWR) - 118.6 MHz
METEO - 134.9 MHz
Ground (GND) - 121.8 MHz
RADAR - 119.4 MHz

Airport informations:
Latitude: 48° 21' 26.00" N
Longitude: 035° 06' 02.00" E
Elevation: 481 feet - 147 meters
Operating hours: 24 hour operations
Operating agency: Civil government, landing fees and diplomatic clearance may be required
Timezone: UTC+2 (+3DT) - Last Sunday in March to last Sunday in October
Fuel: N/A

Runway information:
09/27 - 9320 x 144 feet< - >2841 x 44 meters

Recent METARs:
UKDD 221930Z 10003MPS 8000 NSC M13/M15 Q1021 R08/820554 NOSIG
UKDD 222000Z 12003MPS CAVOK M12/M14 Q1021 R08/820554 NOSIG
UKDD 222030Z 11003MPS CAVOK M12/M14 Q1021 R08/820554 NOSIG

Airport on the map: